User: anonymous   Login
Location: ??????
(30.5519°N, 47.7720°E)
Time: 00:37:24
(UTC+00:00)
Language:

NOSS 2-1 (C) - Orbit

View from above orbital plane
View from above orbital plane
View from above satellite
View from above satellite

Ground track
Ground track

The orbit data is extracted from the following two-line orbital elements,

1 20691U 90050C   21102.02405559 0.00000220  00000-0  28636-4 0    04
2 20691  63.3155 171.7821 0896865  50.7723 309.2277 13.42259353    03
Epoch (UTC): 12 April 2021 00:34:38
Eccentricity: 0.0896865
inclination: 63.3155°
perigee height: 430 km
apogee height: 1771 km
right ascension of ascending node: 171.7821°
argument of perigee: 50.7723°
revolutions per day: 13.42259353
mean anomaly at epoch: 309.2277°
orbit number at epoch: 0

The dashed part of the orbit path shows where the satellite is in the earth's shadow,  

DLR